Time,TemperatureF,DewpointF,PressureIn,WindDirection,WindDirectionDegrees,WindSpeedMPH,WindSpeedGustMPH,Humidity,HourlyPrecipIn,Conditions,Clouds,dailyrainin,SoftwareType,DateUTC
2013-05-10 00:02:00,59.0,58.0,-100.00,NNW,340,9.0,18.0,95,0.00,,,-99.99,,2013-05-10 05:02:00,
2013-05-10 00:12:00,59.0,58.0,-100.00,NNW,340,11.0,18.0,95,0.00,,,-99.99,,2013-05-10 05:12:00,
2013-05-10 00:22:00,59.0,57.0,-100.00,North,355,13.0,21.0,95,0.00,,,-99.99,,2013-05-10 05:22:00,
2013-05-10 00:32:00,58.0,57.0,-100.00,NNW,345,8.0,17.0,95,0.00,,,-99.99,,2013-05-10 05:32:00,
2013-05-10 00:42:00,58.0,57.0,-100.00,NNW,345,8.0,17.0,95,0.00,,,-99.99,,2013-05-10 05:42:00,
2013-05-10 00:52:00,58.0,56.0,-100.00,NNW,340,6.0,19.0,95,0.00,,,-99.99,,2013-05-10 05:52:00,
2013-05-10 01:01:00,58.0,56.0,-100.00,NNW,340,6.0,19.0,95,0.00,,,-99.99,,2013-05-10 06:01:00,
2013-05-10 01:12:00,58.0,56.0,-100.00,NNW,335,6.0,14.0,95,0.00,,,-99.99,,2013-05-10 06:12:00,
2013-05-10 01:21:00,57.0,56.0,-100.00,NNW,340,8.0,13.0,95,0.00,,,-99.99,,2013-05-10 06:21:00,
2013-05-10 01:32:00,57.0,55.0,-100.00,NNW,340,9.0,16.0,95,0.00,,,-99.99,,2013-05-10 06:32:00,
2013-05-10 01:42:00,57.0,55.0,-100.00,NNW,340,9.0,16.0,95,0.00,,,-99.99,,2013-05-10 06:42:00,
2013-05-10 01:51:00,56.0,55.0,-100.00,NNW,340,6.0,15.0,95,0.00,,,-99.99,,2013-05-10 06:51:00,
2013-05-10 02:02:00,56.0,55.0,-100.00,NNW,340,6.0,15.0,95,0.00,,,-99.99,,2013-05-10 07:02:00,
2013-05-10 02:12:00,56.0,55.0,-100.00,NNW,335,8.0,18.0,95,0.00,,,-99.99,,2013-05-10 07:12:00,
2013-05-10 02:22:00,56.0,54.0,-100.00,NNW,340,8.0,13.0,95,0.00,,,-99.99,,2013-05-10 07:22:00,
2013-05-10 02:31:00,55.0,54.0,-100.00,NNW,340,7.0,12.0,95,0.00,,,-99.99,,2013-05-10 07:31:00,
2013-05-10 02:42:00,55.0,54.0,-100.00,NNW,340,7.0,12.0,95,0.00,,,-99.99,,2013-05-10 07:42:00,
2013-05-10 02:52:00,55.0,54.0,-100.00,NNW,335,9.0,16.0,95,0.07,,,-99.99,,2013-05-10 07:52:00,
2013-05-10 03:02:00,55.0,54.0,-100.00,NNW,335,9.0,16.0,95,0.07,,,-99.99,,2013-05-10 08:02:00,
2013-05-10 03:12:00,55.0,53.0,-100.00,NNW,340,7.0,15.0,95,0.10,,,-99.99,,2013-05-10 08:12:00,
2013-05-10 03:21:00,55.0,53.0,-100.00,NNW,335,8.0,12.0,95,0.10,,,-99.99,,2013-05-10 08:21:00,
2013-05-10 03:32:00,54.0,53.0,-100.00,NNW,345,6.0,15.0,95,0.13,,,-99.99,,2013-05-10 08:32:00,
2013-05-10 03:42:00,54.0,53.0,-100.00,NNW,345,6.0,15.0,95,0.13,,,-99.99,,2013-05-10 08:42:00,
2013-05-10 03:52:00,54.0,53.0,-100.00,NNW,335,8.0,16.0,95,0.16,,,-99.99,,2013-05-10 08:52:00,
2013-05-10 04:01:00,54.0,53.0,-100.00,NNW,335,8.0,16.0,95,0.16,,,-99.99,,2013-05-10 09:01:00,
2013-05-10 04:11:00,54.0,53.0,-100.00,NNW,340,7.0,12.0,95,0.16,,,-99.99,,2013-05-10 09:11:00,
2013-05-10 04:21:00,54.0,53.0,-100.00,North,350,6.0,12.0,95,0.11,,,-99.99,,2013-05-10 09:21:00,
2013-05-10 04:32:00,55.0,54.0,-100.00,North,0,6.0,11.0,95,0.18,,,-99.99,,2013-05-10 09:32:00,
2013-05-10 04:42:00,55.0,54.0,-100.00,NNE,30,5.0,13.0,95,0.13,,,-99.99,,2013-05-10 09:42:00,
2013-05-10 04:52:00,55.0,53.0,-100.00,NNE,15,7.0,12.0,95,0.00,,,-99.99,,2013-05-10 09:52:00,
2013-05-10 05:03:00,55.0,53.0,-100.00,NNE,15,7.0,12.0,95,0.00,,,-99.99,,2013-05-10 10:03:00,
2013-05-10 05:12:00,54.0,53.0,-100.00,NNW,340,9.0,12.0,95,0.00,,,-99.99,,2013-05-10 10:12:00,
2013-05-10 05:23:00,55.0,54.0,-100.00,North,5,7.0,12.0,95,0.00,,,-99.99,,2013-05-10 10:23:00,
2013-05-10 05:32:00,55.0,54.0,-100.00,North,10,9.0,14.0,95,0.00,,,-99.99,,2013-05-10 10:32:00,
2013-05-10 05:42:00,55.0,54.0,-100.00,North,10,9.0,14.0,95,0.00,,,-99.99,,2013-05-10 10:42:00,
2013-05-10 05:52:00,55.0,54.0,-100.00,North,5,7.0,15.0,95,0.00,,,-99.99,,2013-05-10 10:52:00,
2013-05-10 06:02:00,55.0,54.0,-100.00,North,5,7.0,15.0,95,0.00,,,-99.99,,2013-05-10 11:02:00,
2013-05-10 06:12:00,55.0,54.0,-100.00,NNE,20,9.0,13.0,95,0.00,,,-99.99,,2013-05-10 11:12:00,
2013-05-10 06:21:00,54.0,53.0,-100.00,North,5,13.0,19.0,95,0.07,,,-99.99,,2013-05-10 11:21:00,
2013-05-10 06:32:00,53.0,52.0,-100.00,North,10,7.0,16.0,95,0.00,,,-99.99,,2013-05-10 11:32:00,
2013-05-10 06:42:00,53.0,52.0,-100.00,North,10,7.0,16.0,95,0.00,,,-99.99,,2013-05-10 11:42:00,
2013-05-10 06:51:00,53.0,52.0,-100.00,North,5,9.0,14.0,95,0.00,,,-99.99,,2013-05-10 11:51:00,
2013-05-10 07:01:00,53.0,52.0,-100.00,North,5,9.0,14.0,95,0.00,,,-99.99,,2013-05-10 12:01:00,
2013-05-10 07:11:00,53.0,51.0,-100.00,North,350,6.0,16.0,95,0.00,,,-99.99,,2013-05-10 12:11:00,
2013-05-10 07:21:00,52.0,51.0,-100.00,North,5,9.0,14.0,95,0.08,,,-99.99,,2013-05-10 12:21:00,
2013-05-10 07:32:00,52.0,51.0,-100.00,NNE,20,11.0,14.0,95,0.00,,,-99.99,,2013-05-10 12:32:00,
2013-05-10 07:42:00,52.0,51.0,-100.00,North,10,9.0,14.0,95,0.08,,,-99.99,,2013-05-10 12:42:00,
2013-05-10 07:51:00,52.0,51.0,-100.00,NNE,15,6.0,17.0,95,0.10,,,-99.99,,2013-05-10 12:51:00,
2013-05-10 08:01:00,52.0,51.0,-100.00,NNE,15,6.0,17.0,95,0.10,,,-99.99,,2013-05-10 13:01:00,
2013-05-10 08:11:00,52.0,51.0,-100.00,North,10,7.0,13.0,95,0.11,,,-99.99,,2013-05-10 13:11:00,
2013-05-10 08:21:00,52.0,51.0,-100.00,North,10,11.0,15.0,95,0.00,,,-99.99,,2013-05-10 13:21:00,
2013-05-10 08:32:00,52.0,51.0,-100.00,North,5,11.0,17.0,95,0.00,,,-99.99,,2013-05-10 13:32:00,
2013-05-10 08:41:00,52.0,51.0,-100.00,North,5,11.0,17.0,95,0.00,,,-99.99,,2013-05-10 13:41:00,
2013-05-10 08:52:00,52.0,51.0,-100.00,NNE,25,7.0,15.0,95,0.00,,,-99.99,,2013-05-10 13:52:00,
2013-05-10 09:02:00,52.0,51.0,-100.00,NNE,25,7.0,15.0,95,0.00,,,-99.99,,2013-05-10 14:02:00,
2013-05-10 09:11:00,52.0,50.0,-100.00,North,10,12.0,17.0,95,0.00,,,-99.99,,2013-05-10 14:11:00,
2013-05-10 09:21:00,52.0,51.0,-100.00,NNE,15,11.0,14.0,95,0.07,,,-99.99,,2013-05-10 14:21:00,
2013-05-10 09:32:00,52.0,51.0,-100.00,NNE,15,11.0,16.0,95,0.08,,,-99.99,,2013-05-10 14:32:00,
2013-05-10 09:41:00,52.0,51.0,-100.00,NNE,15,11.0,16.0,95,0.08,,,-99.99,,2013-05-10 14:41:00,
2013-05-10 09:51:00,52.0,51.0,-100.00,NNE,15,9.0,17.0,95,0.00,,,-99.99,,2013-05-10 14:51:00,
2013-05-10 10:02:00,52.0,50.0,-100.00,North,0,9.0,16.0,95,0.00,,,-99.99,,2013-05-10 15:02:00,
2013-05-10 10:20:00,-999.0,-99.9,-100.00,North,5,9.0,16.0,95,0.00,,,-99.99,,2013-05-10 15:20:00,
2013-05-10 10:32:00,52.0,51.0,-100.00,NE,35,6.0,12.0,95,0.00,,,-99.99,,2013-05-10 15:32:00,
2013-05-10 10:42:00,52.0,51.0,-100.00,NE,35,6.0,12.0,95,0.00,,,-99.99,,2013-05-10 15:42:00,
2013-05-10 10:52:00,52.0,50.0,-100.00,NNE,15,13.0,17.0,95,0.00,,,-99.99,,2013-05-10 15:52:00,
2013-05-10 11:02:00,51.0,50.0,-100.00,NNE,15,13.0,17.0,95,0.00,,,-99.99,,2013-05-10 16:02:00,
2013-05-10 11:12:00,51.0,50.0,-100.00,NNE,20,8.0,19.0,95,0.00,,,-99.99,,2013-05-10 16:12:00,
2013-05-10 11:23:00,52.0,50.0,-100.00,North,5,10.0,17.0,95,0.00,,,-99.99,,2013-05-10 16:23:00,
2013-05-10 11:32:00,52.0,51.0,-100.00,NNE,25,7.0,14.0,95,0.00,,,-99.99,,2013-05-10 16:32:00,
2013-05-10 11:42:00,52.0,51.0,-100.00,North,0,8.0,15.0,95,0.00,,,-99.99,,2013-05-10 16:42:00,
2013-05-10 11:52:00,52.0,51.0,-100.00,NNE,20,7.0,12.0,95,0.00,,,-99.99,,2013-05-10 16:52:00,
2013-05-10 12:02:00,52.0,51.0,-100.00,NE,40,9.0,16.0,95,0.00,,,-99.99,,2013-05-10 17:02:00,
2013-05-10 12:12:00,52.0,50.0,-100.00,NE,35,12.0,15.0,95,0.00,,,-99.99,,2013-05-10 17:12:00,
2013-05-10 12:21:00,52.0,51.0,-100.00,NNE,25,11.0,15.0,95,0.00,,,-99.99,,2013-05-10 17:21:00,
2013-05-10 12:32:00,52.0,51.0,-100.00,North,10,7.0,15.0,95,0.00,,,-99.99,,2013-05-10 17:32:00,
2013-05-10 12:42:00,52.0,51.0,-100.00,NNW,345,7.0,16.0,95,0.00,,,-99.99,,2013-05-10 17:42:00,
2013-05-10 12:52:00,52.0,51.0,-100.00,North,10,8.0,14.0,95,0.00,,,-99.99,,2013-05-10 17:52:00,
2013-05-10 13:10:00,-999.0,-99.9,-100.00,NNW,345,7.0,14.0,95,0.00,,,-99.99,,2013-05-10 18:10:00,
2013-05-10 13:21:00,53.0,51.0,-100.00,NE,35,10.0,16.0,95,0.00,,,-99.99,,2013-05-10 18:21:00,
2013-05-10 13:34:00,53.0,51.0,-100.00,NNE,20,7.0,16.0,95,0.00,,,-99.99,,2013-05-10 18:34:00,
2013-05-10 13:43:00,53.0,51.0,-100.00,NNE,20,9.0,17.0,95,0.00,,,-99.99,,2013-05-10 18:43:00,
2013-05-10 13:54:00,53.0,52.0,-100.00,North,5,10.0,19.0,95,0.00,,,-99.99,,2013-05-10 18:54:00,
2013-05-10 14:02:00,54.0,52.0,-100.00,North,10,9.0,19.0,95,0.00,,,-99.99,,2013-05-10 19:02:00,
2013-05-10 14:11:00,53.0,52.0,-100.00,North,10,12.0,16.0,95,0.00,,,-99.99,,2013-05-10 19:11:00,
2013-05-10 14:21:00,53.0,52.0,-100.00,North,0,7.0,17.0,95,0.00,,,-99.99,,2013-05-10 19:21:00,
2013-05-10 14:32:00,53.0,52.0,-100.00,North,5,9.0,12.0,95,0.00,,,-99.99,,2013-05-10 19:32:00,
2013-05-10 14:42:00,54.0,53.0,-100.00,North,0,6.0,13.0,95,0.00,,,-99.99,,2013-05-10 19:42:00,
2013-05-10 14:52:00,54.0,53.0,-100.00,NNE,25,6.0,13.0,95,0.00,,,-99.99,,2013-05-10 19:52:00,
2013-05-10 15:01:00,54.0,53.0,-100.00,North,10,6.0,12.0,95,0.00,,,-99.99,,2013-05-10 20:01:00,
2013-05-10 15:12:00,54.0,53.0,-100.00,NNE,15,11.0,15.0,95,0.00,,,-99.99,,2013-05-10 20:12:00,
2013-05-10 15:21:00,56.0,54.0,-100.00,NNE,30,12.0,16.0,95,0.00,,,-99.99,,2013-05-10 20:21:00,
2013-05-10 15:32:00,56.0,55.0,-100.00,NNE,15,7.0,16.0,95,0.00,,,-99.99,,2013-05-10 20:32:00,
2013-05-10 15:41:00,56.0,55.0,-100.00,NNE,15,8.0,11.0,95,0.00,,,-99.99,,2013-05-10 20:41:00,
2013-05-10 15:52:00,57.0,55.0,-100.00,NNE,15,8.0,17.0,95,0.00,,,-99.99,,2013-05-10 20:52:00,
2013-05-10 16:02:00,56.0,55.0,-100.00,NNE,30,9.0,14.0,95,0.00,,,-99.99,,2013-05-10 21:02:00,
2013-05-10 16:11:00,57.0,56.0,-100.00,NNE,20,6.0,11.0,95,0.00,,,-99.99,,2013-05-10 21:11:00,
2013-05-10 16:24:00,57.0,56.0,-100.00,NNE,20,7.0,11.0,95,0.00,,,-99.99,,2013-05-10 21:24:00,
2013-05-10 16:32:00,58.0,56.0,-100.00,North,10,8.0,11.0,95,0.00,,,-99.99,,2013-05-10 21:32:00,
2013-05-10 16:43:00,59.0,57.0,-100.00,North,10,5.0,9.0,94,0.00,,,-99.99,,2013-05-10 21:43:00,
2013-05-10 16:52:00,59.0,56.0,-100.00,North,5,7.0,9.0,89,0.00,,,-99.99,,2013-05-10 21:52:00,
2013-05-10 17:02:00,59.0,56.0,-100.00,NNE,15,7.0,12.0,89,0.00,,,-99.99,,2013-05-10 22:02:00,
2013-05-10 17:13:00,59.0,56.0,-100.00,NE,45,4.0,10.0,88,0.00,,,-99.99,,2013-05-10 22:13:00,
2013-05-10 17:22:00,59.0,56.0,-100.00,NE,55,7.0,11.0,89,0.00,,,-99.99,,2013-05-10 22:22:00,
2013-05-10 17:32:00,60.0,56.0,-100.00,NE,45,6.0,11.0,88,0.00,,,-99.99,,2013-05-10 22:32:00,
2013-05-10 17:42:00,60.0,56.0,-100.00,NE,55,6.0,11.0,87,0.00,,,-99.99,,2013-05-10 22:42:00,
2013-05-10 17:52:00,60.0,56.0,-100.00,ENE,60,8.0,12.0,86,0.00,,,-99.99,,2013-05-10 22:52:00,
2013-05-10 18:02:00,61.0,57.0,-100.00,ENE,65,4.0,11.0,85,0.00,,,-99.99,,2013-05-10 23:02:00,
2013-05-10 18:12:00,61.0,56.0,-100.00,NE,35,5.0,11.0,83,0.00,,,-99.99,,2013-05-10 23:12:00,
2013-05-10 18:22:00,61.0,55.0,-100.00,ENE,65,7.0,12.0,80,0.00,,,-99.99,,2013-05-10 23:22:00,
2013-05-10 18:32:00,62.0,55.0,-100.00,ENE,75,4.0,9.0,79,0.00,,,-99.99,,2013-05-10 23:32:00,
2013-05-10 18:42:00,62.0,54.0,-100.00,NNE,30,5.0,10.0,77,0.00,,,-99.99,,2013-05-10 23:42:00,
2013-05-10 18:52:00,62.0,55.0,-100.00,NE,45,6.0,9.0,79,0.00,,,-99.99,,2013-05-10 23:52:00,
2013-05-10 19:02:00,62.0,55.0,-100.00,NE,55,5.0,7.0,79,0.00,,,-99.99,,2013-05-11 00:02:00,
2013-05-10 19:11:00,62.0,54.0,-100.00,NE,50,5.0,7.0,77,0.00,,,-99.99,,2013-05-11 00:11:00,
2013-05-10 19:21:00,62.0,55.0,-100.00,NE,50,3.0,7.0,79,0.00,,,-99.99,,2013-05-11 00:21:00,
2013-05-10 19:32:00,61.0,55.0,-100.00,ENE,60,4.0,6.0,78,0.00,,,-99.99,,2013-05-11 00:32:00,
2013-05-10 19:42:00,61.0,54.0,-100.00,NE,50,4.0,6.0,78,0.00,,,-99.99,,2013-05-11 00:42:00,
2013-05-10 19:51:00,61.0,55.0,-100.00,NE,40,2.0,6.0,80,0.00,,,-99.99,,2013-05-11 00:51:00,
2013-05-10 20:01:00,61.0,55.0,-100.00,ENE,75,2.0,4.0,81,0.00,,,-99.99,,2013-05-11 01:01:00,
2013-05-10 20:11:00,60.0,56.0,-100.00,SE,130,2.0,3.0,86,0.00,,,-99.99,,2013-05-11 01:11:00,
2013-05-10 20:21:00,60.0,56.0,-100.00,SSE,150,2.0,4.0,88,0.00,,,-99.99,,2013-05-11 01:21:00,
2013-05-10 20:32:00,59.0,56.0,-100.00,SSE,165,2.0,4.0,88,0.00,,,-99.99,,2013-05-11 01:32:00,
2013-05-10 20:42:00,58.0,56.0,-100.00,South,185,3.0,4.0,93,0.00,,,-99.99,,2013-05-11 01:42:00,
2013-05-10 20:52:00,58.0,56.0,-100.00,South,175,4.0,5.0,95,0.00,,,-99.99,,2013-05-11 01:52:00,
2013-05-10 21:02:00,57.0,56.0,-100.00,South,180,4.0,5.0,95,0.00,,,-99.99,,2013-05-11 02:02:00,
2013-05-10 21:11:00,57.0,56.0,-100.00,South,185,2.0,4.0,95,0.00,,,-99.99,,2013-05-11 02:11:00,
2013-05-10 21:21:00,57.0,56.0,-100.00,South,185,2.0,4.0,95,0.00,,,-99.99,,2013-05-11 02:21:00,
2013-05-10 21:32:00,56.0,54.0,-100.00,SSW,195,2.0,4.0,95,0.00,,,-99.99,,2013-05-11 02:32:00,
2013-05-10 21:42:00,56.0,54.0,-100.00,SSW,195,2.0,4.0,95,0.00,,,-99.99,,2013-05-11 02:42:00,
2013-05-10 21:51:00,54.0,53.0,-100.00,SSW,195,1.0,2.0,95,0.00,,,-99.99,,2013-05-11 02:51:00,
2013-05-10 22:01:00,54.0,53.0,-100.00,SSW,195,1.0,2.0,95,0.00,,,-99.99,,2013-05-11 03:01:00,
2013-05-10 22:11:00,54.0,53.0,-100.00,South,190,2.0,4.0,95,0.00,,,-99.99,,2013-05-11 03:11:00,
2013-05-10 22:21:00,54.0,53.0,-100.00,SSE,165,1.0,4.0,95,0.00,,,-99.99,,2013-05-11 03:21:00,
2013-05-10 22:33:00,54.0,53.0,-100.00,SW,220,1.0,3.0,95,0.00,,,-99.99,,2013-05-11 03:33:00,
2013-05-10 22:42:00,54.0,53.0,-100.00,SW,220,1.0,3.0,95,0.00,,,-99.99,,2013-05-11 03:42:00,
2013-05-10 22:53:00,54.0,53.0,-100.00,SW,220,2.0,4.0,95,0.00,,,-99.99,,2013-05-11 03:53:00,
2013-05-10 23:02:00,54.0,52.0,-100.00,South,190,1.0,6.0,95,0.00,,,-99.99,,2013-05-11 04:02:00,
2013-05-10 23:12:00,53.0,51.0,-100.00,South,175,1.0,2.0,95,0.00,,,-99.99,,2013-05-11 04:12:00,
2013-05-10 23:23:00,53.0,51.0,-100.00,South,190,1.0,4.0,95,0.00,,,-99.99,,2013-05-11 04:23:00,
2013-05-10 23:33:00,52.0,51.0,-100.00,SSE,160,1.0,2.0,95,0.00,,,-99.99,,2013-05-11 04:33:00,
2013-05-10 23:43:00,52.0,51.0,-100.00,SSE,160,1.0,2.0,95,0.00,,,-99.99,,2013-05-11 04:43:00,
2013-05-10 23:52:00,52.0,50.0,-100.00,SSE,155,1.0,1.0,95,0.00,,,-99.99,,2013-05-11 04:52:00,